STARLINK-36333

Last updated on Sun Apr 12 2026 00:02:07 GMT+0000 (Coordinated Universal Time)

1 68256U 26054AA 26101.50002315 -.00018941 00000+0 -11966-3 0 9990 2 68256 53.1591 148.1537 0001079 95.0131 291.7011 15.75240280 5222
UTC large
Height (km)
Speed (km/s)
/
Latitude / Longitude
Inclination (degrees)
Orbital Period (minutes)
Azimuth
Elevation
Range (km)
Doppler Factor

Next 0 passes for location: London (51.5072 / 0.1276)

Sorry there are no passes over London.
STARLINK-36333